Wetbulb
75.54 75.73 75.26 74.14 74.55 74.87 74.37 73.53 71.19 68.81 71.43 73.50 72.73 76.88 76.93 77.40 77.06 77.48 77.25 72.97 71.23 70.58 69.93 69.91 70.52 71.21 71.87 72.57 73.07 73.62 74.05 74.24 74.37 74.36 74.56 75.02 75.69 76.39
75.60 75.98 75.68 74.58 74.43 75.46 74.72 74.57 73.54 71.71 69.32 73.99 73.70 75.92 76.03 75.96 76.62 77.02 77.20 74.43 71.28 70.46 69.78 69.16 69.63 70.25 70.71 71.23 71.52 71.79 72.23 72.59 72.84 73.00 73.00 73.04 73.33 73.80
75.67 75.51 75.82 76.65 74.32 73.45 74.12 75.01 74.83 73.19 70.74 72.18 74.07 76.08 77.52 76.93 76.97 77.04 77.04 77.35 76.89 70.14 69.88 69.27 68.56 68.98 69.78 69.90 70.11 70.31 70.67 70.73 71.02 71.46 71.88 71.99 72.16 72.27
74.68 75.49 75.24 75.23 75.99 75.67 74.12 75.32 76.90 75.95 72.74 72.62 75.13 74.96 76.88 77.32 77.95 77.28 76.39 76.38 77.01 72.85 69.66 68.88 68.15 67.66 67.66 67.75 67.87 67.96 67.64 68.16 68.52 69.12 69.86 70.48 70.85 70.96
74.83 75.28 75.15 75.73 76.54 75.07 74.80 73.68 74.37 75.22 75.12 73.12 72.24 74.61 75.13 76.54 77.69 77.99 77.66 77.22 76.03 73.46 68.86 68.39 68.04 67.60 66.84 65.94 65.40 64.85 63.94 64.03 64.53 65.23 66.02 67.15 68.41 69.53
75.58 75.69 75.57 75.78 76.73 77.12 75.32 75.76 74.98 74.53 75.12 75.03 72.76 72.39 73.50 76.50 77.20 76.65 74.51 75.53 76.14 76.39 74.53 73.47 71.92 69.17 67.35 65.73 65.19 65.01 62.68 61.45 61.19 61.71 62.37 63.19 64.28 65.84
75.39 75.70 76.07 75.14 72.45 73.64 77.20 76.55 77.53 74.16 72.55 73.19 73.24 74.09 72.66 72.69 75.37 74.02 73.44 74.17 76.30 75.83 75.71 76.90 76.99 77.19 76.24 68.32 71.42 67.64 64.79 62.89 61.30 60.32 60.00 59.96 60.56 61.83
75.92 76.11 76.08 73.79 72.87 69.02 68.44 68.95 73.47 75.42 73.96 71.54 72.12 73.87 76.12 74.69 74.38 73.37 72.95 77.90 73.03 76.01 75.40 74.92 77.03 75.84 76.89 77.41 72.77 69.96 65.82 64.07 62.42 61.02 60.02 59.36 59.34 59.50
75.33 75.83 75.62 75.08 73.69 75.69 69.65 67.77 68.32 67.34 69.10 74.73 73.84 74.31 75.70 77.46 77.99 77.33 75.68 76.43 73.36 77.18 74.72 71.89 75.28 75.35 76.80 75.26 66.48 67.95 65.91 64.03 62.59 61.43 60.39 59.10 58.40 58.00
74.26 74.85 75.05 75.93 75.25 74.90 74.92 74.92 75.00 74.95 73.78 73.79 74.20 74.61 75.49 76.73 78.07 77.97 77.00 77.80 77.66 75.75 74.74 72.10 74.46 74.82 75.96 75.39 64.36 63.97 62.53 61.46 60.96 59.67 58.94 57.48 55.89 55.62
72.40 73.64 74.29 74.63 70.40 65.34 75.08 73.90 74.45 74.27 69.63 66.89 67.73 66.90 65.80 65.86 71.05 76.38 72.77 71.81 71.01 72.18 75.87 73.15 73.39 73.41 74.16 74.84 71.61 61.35 59.88 58.90 58.04 58.00 57.78 56.11 53.69 53.03
71.83 72.47 66.32 69.84 64.56 62.01 72.68 74.04 73.62 73.84 74.21 74.14 74.42 70.85 68.42 72.56 65.29 74.75 73.84 72.17 72.66 71.56 74.37 72.94 73.60 73.09 70.26 73.56 74.40 73.14 70.29 56.13 55.42 55.97 56.37 54.65 52.78 66.61
68.04 68.59 69.75 62.96 61.27 59.57 61.14 72.77 71.29 73.12 72.37 74.28 73.97 73.79 74.41 74.67 74.69 74.81 75.37 74.29 73.16 72.21 73.64 77.93 73.48 72.99 72.14 72.25 74.58 74.66 74.00 66.89 68.36 62.12 53.25 52.91 52.08 56.62
67.77 68.48 69.52 60.40 58.20 57.78 60.39 64.01 60.53 62.95 73.88 73.20 71.37 71.23 72.39 72.34 73.24 74.86 77.46 76.24 76.02 75.67 77.00 79.43 73.46 73.11 71.75 72.23 72.06 75.50 74.13 74.19 71.73 70.85 69.18 60.03 52.28 53.50
67.20 65.10 58.44 57.67 56.33 58.60 57.43 59.91 59.97 68.84 69.09 70.57 70.92 71.21 71.74 73.17 75.76 76.40 78.31 78.87 77.53 77.48 76.40 79.36 75.53 75.63 73.74 71.58 71.94 75.35 73.61 73.08 73.81 72.38 72.42 71.23 68.10 67.19
62.96 65.37 64.24 62.07 60.82 64.16 65.33 60.93 62.54 66.49 67.40 67.73 68.24 70.07 71.32 70.88 73.06 73.52 76.57 75.85 75.31 73.57 78.00 79.01 78.75 77.37 73.25 73.55 73.75 72.56 74.81 71.29 72.74 72.82 72.34 72.02 71.65 71.22
59.74 67.66 68.80 67.17 64.23 63.56 64.39 66.29 67.66 68.75 68.00 68.02 68.55 68.80 68.94 70.96 72.47 73.87 71.83 74.60 73.33 71.95 72.53 75.86 77.34 77.44 76.97 76.44 74.20 74.09 74.12 73.83 73.61 71.35 71.38 70.37 70.81 71.18
59.62 62.40 64.74 65.28 65.70 65.30 65.40 65.71 67.58 66.96 68.41 67.81 67.00 67.36 67.29 68.29 68.99 72.43 74.66 73.76 72.74 73.18 73.19 72.19 74.68 69.58 68.94 71.97 70.00 74.07 73.34 72.43 73.93 73.40 70.94 69.13 70.23 71.59
56.65 60.16 62.11 63.84 64.22 65.70 66.63 68.02 67.51 68.54 70.81 67.43 66.62 67.32 67.58 67.77 66.98 67.82 68.56 71.55 71.18 72.13 72.91 73.40 74.34 69.41 66.68 64.58 71.22 64.68 71.72 72.07 72.39 70.82 69.35 70.04 69.12 68.62
59.73 62.82 62.74 63.66 64.87 65.05 66.40 67.40 69.35 69.03 69.51 68.88 68.04 67.82 67.58 67.34 66.97 67.50 68.41 68.88 70.80 71.66 71.52 73.27 74.08 70.74 69.68 68.79 69.42 71.32 58.99 72.84 72.03 71.15 70.64 70.57 68.40 57.49
64.04 63.84 64.48 64.64 65.24 67.02 66.64 67.27 69.69 69.01 69.02 68.28 68.04 67.61 68.75 68.15 67.43 68.59 68.11 61.53 65.30 71.10 69.20 70.21 72.70 67.70 73.35 72.94 70.75 70.54 70.07 57.21 65.02 72.74 71.54 67.70 65.37 64.77
60.92 64.12 64.80 65.45 66.05 67.49 68.24 66.50 65.47 67.20 68.94 67.82 68.28 67.99 69.52 69.79 68.48 68.25 68.04 65.78 69.24 69.68 69.34 70.91 72.75 73.20 70.78 70.25 69.32 70.58 71.47 71.27 58.92 57.60 56.67 60.31 65.81 62.55
59.57 63.18 65.36 67.62 67.52 67.94 66.97 65.24 64.76 64.99 65.63 66.41 65.71 66.82 68.07 67.64 67.92 68.25 68.20 68.28 68.55 69.37 67.98 70.02 72.22 72.46 70.09 69.92 68.32 69.89 71.43 70.97 68.50 66.52 66.17 59.11 56.67 58.85
MSLP
1016.06 1016.14 1016.21 1015.49 1015.29 1015.53 1015.66 1015.41 1015.07 1014.32 1013.62 1014.27 1014.20 1014.62 1014.54 1014.84 1015.41 1015.67 1015.97 1016.34 1017.04 1017.48 1017.86 1018.19 1018.46 1018.63 1018.76 1018.83 1018.93 1019.05 1019.11 1019.13 1019.20 1019.25 1019.32 1019.43 1019.52 1019.55
1015.70 1015.99 1015.78 1015.36 1015.09 1015.67 1015.42 1015.25 1015.08 1014.79 1013.89 1013.50 1013.97 1014.10 1014.52 1014.64 1014.85 1015.39 1015.23 1015.49 1016.17 1016.71 1017.05 1017.27 1017.57 1017.87 1017.95 1018.02 1018.18 1018.26 1018.32 1018.42 1018.48 1018.52 1018.61 1018.70 1018.77 1018.83
1015.26 1015.40 1015.46 1015.47 1015.26 1014.88 1014.88 1015.14 1015.01 1014.77 1014.34 1013.50 1013.92 1014.30 1014.70 1014.74 1014.53 1014.72 1014.99 1014.76 1014.61 1015.56 1016.10 1016.43 1016.66 1016.89 1017.12 1017.28 1017.38 1017.51 1017.61 1017.62 1017.67 1017.72 1017.79 1017.89 1018.00 1018.06
1014.79 1014.77 1014.69 1014.60 1014.83 1014.97 1014.83 1014.86 1015.04 1014.87 1014.64 1014.16 1013.99 1013.64 1014.29 1014.17 1014.40 1014.43 1014.25 1013.67 1013.55 1013.83 1014.75 1015.36 1015.75 1016.02 1016.27 1016.44 1016.57 1016.70 1016.78 1016.84 1016.85 1016.99 1017.17 1017.18 1017.22 1017.33
1014.05 1014.14 1014.15 1014.24 1014.39 1014.10 1014.06 1013.83 1013.92 1014.50 1014.48 1014.47 1013.82 1013.36 1013.34 1013.54 1014.04 1014.24 1014.01 1013.73 1013.21 1013.09 1013.93 1014.48 1014.82 1014.96 1015.22 1015.51 1015.70 1015.91 1015.99 1016.15 1016.23 1016.29 1016.47 1016.52 1016.62 1016.72
1013.35 1013.47 1013.60 1013.66 1013.84 1013.99 1013.76 1013.78 1013.73 1014.14 1014.30 1014.32 1013.67 1013.20 1012.98 1012.99 1013.43 1013.53 1013.76 1013.59 1013.03 1012.14 1012.57 1012.74 1013.64 1014.14 1014.44 1014.63 1014.71 1014.84 1015.09 1015.32 1015.47 1015.64 1015.80 1015.89 1016.00 1016.12
1012.35 1012.47 1012.61 1012.71 1012.78 1013.14 1013.40 1013.41 1013.16 1013.25 1013.07 1013.57 1013.74 1013.48 1012.82 1012.05 1012.64 1012.54 1012.46 1012.36 1012.56 1012.72 1011.99 1011.29 1012.14 1012.72 1013.09 1013.95 1013.83 1014.06 1014.20 1014.50 1014.75 1014.92 1015.05 1015.18 1015.32 1015.47
1011.65 1011.56 1011.75 1012.00 1012.24 1012.46 1012.67 1012.81 1012.90 1013.10 1012.92 1012.48 1012.74 1012.85 1012.48 1012.35 1012.26 1012.24 1011.71 1012.04 1012.22 1011.97 1012.24 1011.85 1010.76 1010.98 1010.73 1011.06 1011.51 1012.50 1013.15 1013.69 1014.09 1014.32 1014.49 1014.60 1014.70 1014.85
1010.95 1011.15 1011.12 1010.65 1010.89 1011.21 1011.63 1011.94 1012.11 1012.26 1012.54 1012.35 1012.32 1012.38 1012.28 1012.43 1012.72 1012.82 1012.50 1012.27 1012.06 1011.92 1012.10 1011.65 1010.82 1010.42 1010.48 1010.54 1011.85 1012.55 1013.15 1013.42 1013.56 1013.77 1014.06 1014.29 1014.38 1014.48
1010.41 1010.29 1010.40 1010.38 1010.36 1010.54 1010.49 1010.52 1010.84 1010.95 1011.17 1011.37 1011.57 1011.51 1011.60 1011.61 1012.19 1012.36 1012.34 1012.37 1012.29 1011.64 1011.73 1011.22 1010.30 1010.13 1010.20 1010.99 1011.90 1012.63 1013.26 1013.56 1013.36 1013.35 1013.61 1013.92 1014.18 1014.40
1009.83 1009.69 1009.63 1009.66 1009.58 1009.78 1010.13 1009.67 1009.55 1009.34 1009.29 1009.77 1009.85 1010.15 1010.79 1011.17 1011.51 1011.72 1011.47 1011.38 1010.70 1010.10 1009.96 1010.53 1010.19 1009.86 1009.61 1009.69 1011.04 1011.99 1012.87 1013.36 1013.32 1013.17 1013.35 1013.79 1014.14 1014.39
1008.74 1008.94 1009.04 1009.32 1009.13 1009.45 1009.81 1009.31 1009.15 1008.87 1008.73 1008.72 1009.54 1009.82 1009.84 1010.12 1010.97 1011.10 1010.62 1010.51 1010.35 1009.35 1008.98 1009.37 1009.52 1009.61 1009.29 1009.25 1009.47 1010.68 1011.77 1013.10 1013.26 1013.26 1013.40 1013.67 1013.99 1013.41
1007.73 1007.59 1007.54 1007.78 1008.38 1009.04 1009.24 1008.84 1008.44 1008.56 1008.61 1008.50 1008.30 1008.22 1007.93 1008.32 1008.98 1009.29 1009.56 1009.46 1009.49 1009.25 1009.00 1009.45 1009.16 1008.76 1008.60 1008.85 1009.55 1010.20 1010.59 1011.93 1012.20 1012.96 1013.42 1013.60 1013.77 1013.75
1007.74 1007.17 1007.01 1007.19 1007.56 1008.02 1008.60 1008.55 1008.44 1008.57 1008.49 1008.28 1007.80 1007.61 1006.70 1006.82 1006.99 1007.34 1007.65 1008.45 1008.42 1008.52 1008.42 1008.89 1008.98 1008.55 1008.09 1008.40 1008.81 1009.28 1009.79 1010.04 1010.84 1011.15 1011.58 1012.40 1013.38 1013.62
1008.15 1007.32 1007.19 1007.18 1007.27 1007.55 1007.78 1007.69 1007.97 1007.80 1007.49 1007.48 1007.01 1006.43 1006.52 1006.04 1005.81 1006.19 1006.72 1007.03 1007.74 1007.86 1007.84 1008.20 1008.60 1008.44 1008.32 1007.89 1008.20 1008.82 1009.14 1009.37 1009.80 1010.16 1010.24 1010.62 1011.34 1011.67
1007.80 1007.35 1006.89 1006.75 1006.62 1006.67 1006.73 1007.24 1007.38 1006.99 1006.70 1006.43 1006.07 1006.07 1005.77 1005.87 1005.10 1005.31 1005.91 1006.64 1007.17 1006.58 1006.90 1007.30 1007.81 1008.15 1007.87 1007.58 1007.99 1008.06 1008.59 1008.60 1008.81 1009.23 1009.58 1009.67 1009.77 1009.96
1007.70 1006.88 1006.32 1006.14 1006.20 1006.29 1006.20 1006.01 1005.79 1005.53 1005.68 1005.81 1005.51 1005.17 1005.15 1005.64 1005.51 1005.48 1005.57 1005.59 1006.17 1005.83 1005.69 1006.20 1006.74 1007.26 1007.34 1007.41 1007.78 1007.82 1007.82 1007.88 1008.09 1008.55 1009.11 1008.87 1008.93 1008.96
1007.62 1006.75 1005.53 1005.14 1005.17 1005.16 1005.12 1005.05 1004.84 1004.36 1004.23 1004.52 1004.79 1004.78 1004.72 1004.72 1004.65 1005.26 1005.36 1005.24 1005.33 1005.25 1005.25 1004.67 1005.26 1007.07 1007.51 1007.13 1007.16 1006.94 1006.81 1006.43 1006.70 1007.46 1008.17 1008.24 1007.73 1007.55
1006.97 1005.97 1005.30 1004.68 1004.45 1004.17 1003.72 1003.50 1003.11 1002.55 1002.66 1003.30 1003.63 1003.55 1003.52 1003.59 1003.57 1003.47 1003.46 1004.02 1004.25 1004.27 1004.36 1004.57 1004.70 1005.53 1005.90 1005.60 1005.74 1005.87 1005.88 1005.86 1005.97 1006.86 1007.46 1007.15 1006.89 1006.66
1005.49 1004.34 1003.83 1003.71 1003.35 1003.17 1002.98 1002.57 1002.50 1002.38 1002.38 1002.51 1002.41 1002.43 1002.27 1002.20 1002.16 1001.91 1001.91 1001.93 1002.45 1002.62 1002.75 1003.28 1003.50 1004.00 1003.64 1003.34 1003.48 1003.75 1004.73 1004.96 1005.17 1005.73 1005.93 1006.24 1006.82 1007.36
1003.67 1002.81 1002.43 1002.18 1002.07 1002.02 1001.93 1001.87 1001.79 1001.82 1001.79 1001.78 1001.83 1001.78 1001.63 1001.71 1001.50 1001.32 1000.61 1000.56 1000.55 1000.99 1001.14 1001.52 1001.30 1002.00 1002.58 1002.77 1002.66 1002.46 1003.99 1004.55 1004.43 1004.49 1004.79 1005.58 1005.88 1006.35
1003.63 1002.41 1001.79 1001.44 1001.04 1001.11 1001.04 1001.33 1001.60 1001.25 1001.06 1001.12 1001.05 1000.97 1000.85 1000.82 1001.03 1000.91 1000.78 1000.73 1000.53 1000.46 1000.39 1000.68 1000.61 1001.22 1001.81 1001.84 1001.40 1001.44 1001.96 1002.55 1003.97 1004.69 1004.65 1004.87 1004.90 1004.91
1003.05 1002.23 1001.58 1001.10 1000.81 1000.63 1000.74 1000.98 1001.07 1000.99 1000.88 1000.74 1000.69 1000.65 1000.46 999.85 999.65 999.81 999.86 999.89 1000.03 999.84 1000.22 1000.06 999.78 999.95 1000.55 1000.75 1000.73 1000.48 1000.64 1001.54 1002.36 1003.38 1003.75 1003.87 1004.49 1004.72
Wind_Speed
8 8 8 8 5 5 5 6 7 8 1 8 6 9 8 9 11 13 14 15 20 19 18 18 18 18 17 17 17 17 17 16 16 15 15 15 15 16
7 9 8 9 7 5 7 6 6 7 8 2 6 3 5 5 7 12 14 11 17 17 17 18 18 18 19 18 18 18 18 17 17 17 17 16 16 17
11 11 11 10 9 8 6 7 7 7 8 7 5 6 6 8 8 8 10 13 12 19 17 16 17 18 18 17 17 18 18 18 18 18 19 18 17 17
14 13 13 10 11 11 10 8 7 9 8 8 8 5 7 6 6 8 9 10 12 15 20 18 18 17 16 16 16 17 17 17 18 17 16 18 16 15
14 13 14 14 11 11 10 9 10 9 9 9 10 7 6 6 6 8 8 9 10 9 15 15 17 17 16 16 16 16 16 16 15 15 15 15 15 15
15 15 15 14 13 12 13 11 11 8 9 9 10 10 9 8 5 6 7 8 8 8 13 10 14 16 16 16 17 17 15 15 14 14 14 14 13 13
16 15 16 17 14 12 10 12 9 10 10 9 9 9 10 9 8 11 9 9 7 8 10 7 10 10 11 14 14 18 15 16 15 14 14 13 13 12
14 15 15 13 14 13 13 14 11 11 12 10 10 11 10 9 7 9 9 2 9 8 6 9 8 8 11 12 20 13 17 14 13 12 12 12 11 10
16 14 14 14 15 16 16 15 16 14 15 13 12 12 11 8 8 9 9 7 10 6 4 6 10 8 9 5 10 8 4 8 10 10 9 9 9 9
15 15 13 15 16 15 16 15 16 16 17 15 17 16 15 13 10 9 9 8 8 9 4 8 11 8 8 7 11 7 3 6 7 8 9 9 8 9
14 15 15 17 19 14 16 18 17 17 15 17 16 13 11 9 9 9 11 11 11 11 11 11 10 10 10 9 9 11 4 5 6 7 9 10 10 9
13 15 15 18 15 8 14 16 14 16 15 14 16 14 14 16 12 13 13 12 10 11 10 9 10 10 11 8 10 9 6 6 6 8 9 10 10 8
13 13 13 18 20 15 13 17 17 11 12 13 14 12 13 14 14 15 16 14 13 13 11 5 9 10 10 6 5 6 7 8 7 7 8 9 9 9
15 14 13 8 12 15 14 22 14 8 9 10 10 10 12 13 14 14 14 14 14 15 12 8 10 11 10 7 6 5 7 7 8 8 9 10 10 9
14 14 12 10 8 8 17 18 14 14 14 12 12 12 12 14 14 13 13 14 15 14 13 12 12 12 11 12 10 7 7 8 9 9 9 9 9 9
13 14 16 13 10 11 8 7 7 9 11 13 14 12 10 7 11 11 8 9 10 14 16 14 14 15 13 11 10 10 8 7 8 10 9 9 9 10
10 11 9 7 6 7 7 8 8 11 12 13 14 13 12 9 10 12 7 10 12 14 13 11 12 14 13 12 10 11 10 10 6 8 10 10 9 10
9 10 12 10 10 9 9 9 11 13 11 10 10 10 10 13 12 12 10 9 11 11 13 14 10 5 3 9 11 11 12 12 8 9 10 10 11 11
7 10 11 12 9 12 12 13 13 13 11 12 13 14 15 15 15 16 14 13 13 13 12 13 7 10 11 14 10 21 15 12 11 7 9 11 11 9
10 12 13 13 13 11 13 13 12 12 10 12 13 13 13 13 15 16 16 17 15 15 15 13 11 13 15 15 13 12 26 14 11 12 13 10 5 7
12 12 13 13 13 12 12 13 12 12 10 9 11 13 13 13 15 15 15 16 15 15 14 16 16 15 13 12 13 11 8 19 12 12 10 11 12 11
11 13 10 9 10 11 11 8 10 13 11 11 12 12 12 11 13 15 15 13 13 15 13 13 14 12 12 15 16 16 11 12 13 10 6 9 11 13
9 10 9 9 8 8 8 9 11 11 12 13 10 11 13 14 14 12 14 16 15 13 14 14 12 12 14 15 17 15 14 15 11 14 14 15 9 5
Wind_Direction
254 239 251 273 249 248 265 277 276 280 270 159 235 199 232 220 226 225 224 202 204 212 218 226 230 229 232 235 237 237 237 236 237 241 244 247 252 257
242 274 261 268 259 216 269 262 260 276 291 163 209 179 204 237 214 232 237 213 196 206 216 221 224 228 228 229 232 233 234 235 236 238 240 242 245 247
244 241 245 252 261 266 232 252 269 251 261 264 200 222 236 241 263 220 237 234 219 196 210 220 222 224 228 227 227 231 233 235 235 235 237 239 241 243
242 244 244 237 231 238 264 223 258 280 266 264 270 268 220 236 243 244 252 241 229 197 201 211 217 219 221 225 227 227 231 232 233 236 239 238 242 244
245 249 249 244 237 253 251 250 220 225 235 250 272 248 248 236 237 237 250 244 258 199 195 207 217 217 219 223 225 228 229 233 235 236 238 239 242 244
240 239 244 247 248 244 239 237 238 247 242 253 263 258 244 238 237 251 238 247 259 252 209 220 197 214 220 221 224 228 228 233 233 235 238 237 235 238
244 243 238 242 249 245 238 231 258 231 235 229 245 265 279 246 201 243 232 246 203 255 287 225 199 214 217 226 240 225 223 227 226 229 236 236 234 233
251 245 244 239 239 228 227 248 252 237 250 259 250 250 242 266 263 267 260 242 263 201 232 275 276 225 223 206 196 214 205 216 223 227 230 228 223 221
248 250 253 247 218 239 214 223 239 236 240 251 247 250 267 259 252 267 267 250 247 276 184 247 267 242 266 130 104 121 158 204 215 221 220 218 211 204
260 257 250 253 254 239 237 229 229 233 222 226 237 247 247 252 245 247 257 265 274 257 245 247 260 227 234 138 119 89 13 277 236 214 203 190 171 153
263 259 254 251 248 229 237 239 236 234 215 212 221 235 248 233 229 236 240 238 248 246 199 222 251 256 255 245 141 109 109 245 213 173 161 155 155 162
245 249 232 252 270 217 233 241 245 244 235 233 221 232 231 241 217 233 240 245 249 260 244 216 230 246 252 238 231 156 170 149 144 148 156 165 178 211
259 254 254 210 228 226 231 244 242 241 246 245 236 238 225 220 229 217 228 233 233 248 258 185 254 246 231 242 198 211 211 147 184 175 183 200 211 249
266 271 272 267 212 215 212 242 247 235 248 238 231 241 231 237 237 227 212 223 235 243 256 209 233 252 259 220 259 183 209 211 208 200 198 186 208 237
261 276 318 298 253 233 225 238 210 233 237 237 233 231 235 249 236 226 216 206 223 239 229 237 240 243 256 262 244 223 219 210 221 226 215 207 205 206
244 254 253 267 246 267 250 206 220 227 226 239 242 247 258 304 272 231 207 212 224 230 217 228 229 230 241 250 241 249 219 222 195 219 230 226 225 229
325 297 283 248 226 229 233 234 233 222 226 242 251 247 248 241 257 270 279 217 219 234 234 216 224 239 232 240 237 235 236 237 208 198 210 235 223 227
280 270 269 257 241 230 231 228 230 234 243 235 235 237 236 248 239 236 247 243 238 233 247 244 189 181 241 251 241 240 234 236 225 206 197 235 240 217
235 248 253 260 253 257 256 248 254 246 231 232 242 236 237 242 243 248 233 234 235 235 230 252 184 197 217 238 233 209 238 240 238 197 204 228 240 233
253 250 244 244 248 244 248 248 244 256 252 249 245 244 245 247 250 246 240 230 225 230 233 221 225 214 225 238 243 224 203 227 215 217 218 224 229 78
266 243 244 244 244 244 241 255 254 249 249 237 233 239 243 242 249 258 255 237 226 227 225 229 229 209 233 240 253 247 178 238 258 226 213 224 217 208
273 276 266 268 249 244 249 249 251 260 250 247 249 252 255 242 239 244 248 252 240 242 237 233 231 217 211 227 232 236 232 193 215 209 285 254 220 221
263 278 272 268 267 266 241 240 241 248 249 255 258 255 252 255 240 240 241 232 244 238 234 238 237 201 202 214 234 232 226 216 199 200 223 222 182 124